Weather History for Plattsburgh, NY

Change the Weather History Date:

Thursday, February 21, 2013

  Actual Average Record
Temperature  
Mean Temperature 16 °F 23 °F  
Max Temperature 22 °F 33 °F 57 °F (1953)
Min Temperature 9 °F 13 °F -19 °F (1993)
Degree Days  
Heating Degree Days 49 42  
Month to date heating degree days 850 950  
Since 1 July heating degree days 4920 5326  
Moisture  
Dew Point 9 °F    
Average Humidity 73    
Maximum Humidity 91    
Minimum Humidity 54    
Precipitation  
Precipitation T in - 0.36 in (1971)
Month to date precipitation 0.45  
Year to date precipitation 1.20  
Sea Level Pressure  
Sea Level Pressure 30.10 in    
Wind  
Wind Speed 4 mph (WNW)    
Max Wind Speed 12 mph    
Max Gust Speed 21 mph    
Visibility 8 miles    
Events Snow    
T = Trace of Precipitation, MM = Missing Value Source: NWS Daily Summary

Daily Weather History Graph

Daily Weather History Graph

Search for Another Location

Airport:

Trip Planner

Search our weather history database for the weather conditions in past years. The results will help you decide how hot, cold, wet, or windy it might be!

Date:

Astronomy

Feb. 21, 2013 Rise Set
Actual Time 6:44 AM EST 5:31 PM EST
Civil Twilight 6:14 AM EST 6:00 PM EST
Nautical Twilight 5:40 AM EST 6:34 PM EST
Astronomical Twilight 5:07 AM EST 7:08 PM EST
Moon 1:37 PM EST (2/21) 3:53 AM EST (2/21)
Length of Visible Light 11h 45m
Length of Day
10h 46m
Waxing Gibbous, 83% of the Moon is Illuminated
Feb 21
Waxing Gibbous
Feb 25
Full
Mar 4
Last Quarter
Mar 11
New
Mar 19
First Quarter

Hourly Weather History & Observations

Time (EST) Temp. Windchill Dew Point Humidity Pressure Visibility Wind Dir Wind Speed Gust Speed Precip Events Conditions
12:53 AM 17.1 °F 7.6 °F 3.9 °F 56% 29.83 in 10.0 mi WNW 6.9 mph - N/A   Scattered Clouds
1:53 AM 15.1 °F 6.4 °F 3.0 °F 59% 29.85 in 10.0 mi Variable 5.8 mph - N/A   Partly Cloudy
2:53 AM 12.9 °F 3.8 °F 1.0 °F 59% 29.86 in 10.0 mi West 5.8 mph - N/A   Mostly Cloudy
3:53 AM 10.9 °F 1.4 °F -0.9 °F 59% 29.88 in 10.0 mi Variable 5.8 mph - N/A   Scattered Clouds
4:53 AM 10.0 °F 3.6 °F -0.9 °F 61% 29.90 in 10.0 mi SW 3.5 mph - N/A   Mostly Cloudy
5:53 AM 9.0 °F -2.2 °F -2.0 °F 61% 29.92 in 10.0 mi Variable 6.9 mph - N/A   Overcast
6:53 AM 9.0 °F -0.9 °F -2.9 °F 59% 29.95 in 10.0 mi Variable 5.8 mph - N/A   Mostly Cloudy
7:53 AM 10.0 °F -0.9 °F -2.0 °F 58% 29.98 in 10.0 mi WNW 6.9 mph - N/A   Overcast
9:53 AM 14.0 °F 3.9 °F -0.0 °F 54% 30.01 in 10.0 mi Variable 6.9 mph - 0.00 in   Overcast
10:53 AM 16.0 °F 8.8 °F 3.0 °F 57% 30.03 in 10.0 mi Variable 4.6 mph - 0.00 in   Overcast
11:53 AM 17.1 °F 6.6 °F 3.9 °F 56% 30.04 in 6.0 mi WNW 8.1 mph 16.1 mph 0.00 in Snow Light Snow
12:53 PM 19.9 °F 13.4 °F 7.0 °F 57% 30.05 in 8.0 mi Variable 4.6 mph - 0.00 in Snow Light Snow
1:53 PM 21.0 °F 13.4 °F 9.0 °F 60% 30.08 in 5.0 mi Variable 5.8 mph - 0.00 in Snow Light Snow
2:53 PM 19.0 °F - 12.0 °F 74% 30.11 in 10.0 mi Calm Calm - 0.00 in   Overcast
3:53 PM 19.0 °F - 12.0 °F 74% 30.14 in 7.0 mi Calm Calm - 0.00 in Snow Light Snow
4:53 PM 19.0 °F - 14.0 °F 81% 30.18 in 2.5 mi Calm Calm - 0.00 in Snow Light Snow
5:18 PM 19.4 °F - 15.8 °F 86% 30.18 in 1.8 mi Calm Calm - 0.00 in Snow Light Snow
5:24 PM 19.4 °F - 15.8 °F 86% 30.18 in 3.0 mi Calm Calm - 0.00 in Snow Light Snow
5:36 PM 19.4 °F 14.3 °F 15.8 °F 86% 30.19 in 1.8 mi East 3.5 mph - 0.00 in Snow Light Snow
5:45 PM 19.4 °F - 15.8 °F 86% 30.20 in 3.0 mi Calm Calm - 0.00 in Snow Light Snow
5:53 PM 19.0 °F 13.9 °F 15.1 °F 85% 30.22 in 8.0 mi East 3.5 mph - 0.00 in Snow Light Snow
6:53 PM 19.0 °F 12.3 °F 16.0 °F 88% 30.24 in 10.0 mi ESE 4.6 mph - 0.00 in   Overcast
7:53 PM 19.9 °F - 15.1 °F 81% 30.27 in 10.0 mi Calm Calm - N/A   Overcast
8:31 PM 19.4 °F - 15.8 °F 86% 30.25 in 10.0 mi Calm Calm - N/A   Overcast
8:53 PM 19.9 °F - 15.1 °F 81% 30.28 in 10.0 mi Calm Calm - N/A   Overcast
9:53 PM 19.9 °F 14.9 °F 16.0 °F 85% 30.34 in 10.0 mi North 3.5 mph - N/A   Overcast
10:53 PM 19.9 °F 14.9 °F 17.1 °F 89% 30.37 in 10.0 mi Variable 3.5 mph - 0.00 in   Overcast
11:53 PM 21.9 °F - 16.0 °F 78% 30.40 in 10.0 mi Calm Calm - N/A   Overcast